Flag for Australia Weather past 2 weeks in Hobart, Tasmania, Australia

Now
73 °F

Broken clouds.


Feels Like: 77 °F
Forecast: 53 / 73 °F
Wind: 15 mph from Northeast

Location: Hobart Airport

Current Time: Dec 22, 2014 at 5:06:18 PM

Latest Report: Dec 22, 2014 at 4:30 PM


Visibility: N/A

Pressure: 29.89 "Hg

Humidity: 53%

Dew point: 55 °F

Location of HobartLocation

Historic Weather in Hobart — Graph

°F

Hobart temperature yesterday

Maximum temperature yesterday: 73 °F (at 3:00 PM)
Minimum temperature yesterday: 55 °F (at 2:00 AM)
Average temperature yesterday: 63 °F

Past Weeks' High & Low Weather Summary

 TemperatureHumidityPressure
High86 °F (Dec 16, 2:00 PM)100% (Dec 8, 12:30 AM)30.24 "Hg (Dec 8, 12:30 AM)
Low43 °F (Dec 12, 3:30 AM)24% (Dec 17, 3:30 PM)29.00 "Hg (Dec 16, 4:30 PM)
Average60 °F65%29.83 "Hg
* Reported Dec 7 4:00 PM — Dec 22 4:00 PM, Hobart, Weather by CustomWeather, © 2014

Note: Actual official high and low records may vary slightly from our data, if they occured in-between our weather recording intervals... More about our weather records

Advertising

Hobart weather history for previous 24 hours

 ConditionsComfort  
Time TempWeatherWind HumidityBarometerVisibility
4:00 PM
Dec 22
72 °FBroken clouds.15 mph57%29.92 "HgN/A
3:30 PM72 °FBroken clouds.13 mph53%29.92 "HgN/A
3:00 PM72 °FBroken clouds.12 mph53%29.92 "HgN/A
2:30 PM72 °FPartly sunny.13 mph53%29.92 "HgN/A
2:00 PM72 °FPartly sunny.12 mph53%29.95 "HgN/A
1:30 PM70 °FPartly sunny.12 mph57%29.95 "HgN/A
1:00 PM68 °FPartly sunny.13 mph60%29.95 "HgN/A
12:30 PM68 °FPartly sunny.14 mph56%29.95 "HgN/A
12:00 PM68 °FPartly sunny.13 mph56%29.95 "HgN/A
11:00 AM66 °FScattered clouds.14 mph60%29.98 "HgN/A
10:30 AM66 °FScattered clouds.12 mph60%29.98 "HgN/A
10:00 AM63 °FPartly sunny.8 mph64%29.98 "HgN/A
9:30 AM63 °FPartly sunny.6 mph64%30.01 "HgN/A
9:00 AM61 °FPartly sunny.6 mph68%30.01 "HgN/A
8:00 AM59 °FPartly sunny.2 mph72%29.98 "HgN/A
7:30 AM57 °FPassing clouds.7 mph72%29.98 "HgN/A
7:00 AM55 °FPassing clouds.8 mph77%29.98 "HgN/A
6:30 AM54 °FPassing clouds.8 mph82%29.98 "HgN/A
6:00 AM52 °FScattered clouds.5 mph88%29.98 "HgN/A
5:30 AM54 °FScattered clouds.6 mph88%29.95 "HgN/A
5:00 AM54 °FPassing clouds.2 mph88%29.95 "HgN/A
4:30 AM55 °FPassing clouds.2 mph88%29.95 "HgN/A
4:00 AM55 °FPassing clouds.5 mph88%29.95 "HgN/A
3:30 AM57 °FPassing clouds.7 mph82%29.95 "HgN/A
3:00 AM54 °FPassing clouds.3 mph94%29.95 "HgN/A
2:30 AM54 °FPassing clouds.No wind88%29.95 "HgN/A
2:00 AM54 °FPassing clouds.No wind94%29.95 "HgN/A
1:30 AM55 °FPassing clouds.5 mph88%29.95 "HgN/A
1:00 AM55 °FPassing clouds.2 mph88%29.95 "HgN/A
12:30 AM57 °FPassing clouds.No wind82%29.95 "HgN/A
12:00 AM57 °FPassing clouds.3 mph82%29.95 "HgN/A
11:30 PM
Dec 21
57 °FPassing clouds.6 mph82%29.92 "HgN/A
11:00 PM59 °FPassing clouds.7 mph77%29.92 "HgN/A
10:00 PM59 °FPassing clouds.5 mph77%29.92 "HgN/A
9:00 PM61 °FPassing clouds.6 mph77%29.89 "HgN/A
8:30 PM64 °FPassing clouds.8 mph56%29.86 "HgN/A
8:00 PM66 °FPassing clouds.9 mph52%29.86 "HgN/A
7:30 PM66 °FPassing clouds.8 mph49%29.86 "HgN/A
7:00 PM66 °FPassing clouds.10 mph52%29.83 "HgN/A
6:00 PM66 °FPassing clouds.14 mph52%29.83 "HgN/A
5:00 PM66 °FScattered clouds.22 mph64%29.80 "HgN/A
Weather by CustomWeather, © 2014

See weather overviewHow to use our weather pages